sat.trackr.live / text

‹ back to catalog

STARLINK-4716

NORAD 53706 · 2022-107G

PAYLOAD ACTIVE UNKNOWN

§ Identity

Operator
Country
US
Launch date
2022-09-05
Launch site
AFETR
Launch vehicle
Mass (kg)
RCS (m²)

Purposes: comms

External: N2YO · Heavens-Above · Gunter

§ Orbital elements

Epoch: 2026-09-20T22:00:03.000096Z

Period
93.80 min
Inclination
53.1605°
Eccentricity
0.0001537
Mean motion
15.35260780 rev/d
Perigee alt
459.1 km
Apogee alt
461.2 km
Semi-major
6,838.3 km
B*
2.5954e-3
RAAN
83.7184°
Arg perigee
85.1321°
Mean anomaly
296.2321°
Rev number
582

§ Raw data

STARLINK-47161 53706U 22107G   26263.91670139  .00090843  00000+0  25954-2 0  99982 53706  53.1605  83.7184 0001537  85.1321 296.2321 15.35260780  5827

JSON: /api/v1/satellites/53706 · /tle

For live sub-satellite position, see the globe view (requires WebGL).

§ Visibility from observer

Set your observer location to see the next 7 days of passes ≥ 10°. The values pass through the URL so the page stays shareable.

No JS? Fill the form by hand. The geolocation button needs JavaScript.